Hourly Data Report for July 10, 2021

LONDON CS
ONTARIO
Current Station Operator: ECCC - MSC

43°02'00.000" N
81°09'00.000" W
278.00 m
6144478
71622
WSN

Download Data

Hourly Data (July 2021)
Hourly Data Report for July 10, 2021
TIME
LST
Temp Definition
°C
Dew Point Definition
°C
Rel Hum Definition
%
Precip. Amount Definition
mm

Wind Dir Definition
10's deg

Wind Spd Definition
km/h
Visibility Definition
km
Stn Press Definition
kPa
Hmdx Definition


Wind Chill Definition


Weather Definition


00:00 15.5 12.9 84 0.0       98.60     LegendNANA
01:00 15.2 12.7 85 0.0       98.57     LegendNANA
02:00 14.8 12.8 87 0.0       98.56     LegendNANA
03:00 14.8 12.3 85 0.0       98.56     LegendNANA
04:00 14.6 12.1 85 0.0       98.59     LegendNANA
05:00 14.4 12.1 86 0.0       98.53     LegendNANA
06:00 14.5 11.8 84 0.0       98.57     LegendNANA
07:00 15.2 12.6 84 0.0       98.69     LegendNANA
08:00 17.3 12.4 73 0.0       98.69     LegendNANA
09:00 18.6 13.5 72 0.0       98.70     LegendNANA
10:00 18.6 13.8 74 0.0       98.72     LegendNANA
11:00 19.6 13.0 66 0.0       98.70     LegendNANA
12:00 20.3 15.0 72 0.0       98.72     LegendNANA
13:00 20.5 13.2 63 0.0       98.66     LegendNANA
14:00 20.3 13.7 66 0.0       98.62     LegendNANA
15:00 21.4 14.2 64 0.0       98.54 25   LegendNANA
16:00 20.5 14.9 70 0.0       98.55     LegendNANA
17:00 21.2 14.2 65 0.0       98.51 25   LegendNANA
18:00 21.2 14.4 66 0.0       98.46 25   LegendNANA
19:00 20.9 14.6 67 0.0       98.44 25   LegendNANA
20:00 18.8 15.3 80 0.0       98.44     LegendNANA
21:00 16.9 15.1 89 0.0       98.51     LegendNANA
22:00 16.7 15.1 90 0.0       98.52     LegendNANA
23:00 16.3 14.8 91 0.0       98.53     LegendNANA

Notes on Data Quality.

Legend

  • E = Estimated
  • M = Missing
  • NA = Not Available*
  • [empty] = Indicates an unobserved value
Date modified: